カタログに戻る

STARLINK-37953

運用中通信SSO
NORAD 69694·PAYLOAD·🇺🇸 United States

打ち上げ Jun 25, 2026 から Vandenberg Space Force Base

Loading…

次のパス (今後24時間)

TLE

最新Source: CelesTrak SupGP

元期: Sep 14, 2026, 23:05 UTC

1 69694C 26145T   26257.96229167  .00091788  00000+0  28498-2 0  2578
2 69694  97.2846 104.7357 0001771  91.6421  11.6997 15.33387173    13

AllMySatでSTARLINK-37953をリアルタイム追跡

Download on the App Store